Location: Staunton
(38.1490°N, 79.0720°W)
Time: 03:01:14
(UTC-04:00)

ISS - Pass Details

Date: 16 October 2018
Orbit: 403 x 408 km, 51.6° (Epoch: 21 October)

Event Time Altitude Azimuth Distance (km) Brightness Sun altitude
Rises 19:09:09 0° 288° (WNW) 2,330 1.4 -7.1°
Reaches altitude 10° 19:12:27 10° 252° (WSW) 1,464 0.6 -7.7°
Maximum altitude 19:13:32 11° 232° (SW) 1,385 -0.1 -7.9°
Drops below altitude 10° 19:14:38 10° 213° (SSW) 1,460 -0.4 -8.1°
Sets 19:17:54 0° 177° (S) 2,312 0.0 -8.8°
